This is the latest recevied weather packets stored in our database for station/object W1REE. If no packets are shown the sender has not sent any weather packets the latest 10 day(s).
| Time | Temp. | Humidity | Pressure | Rain* | Wind** | Luminosity | Snow |
|---|---|---|---|---|---|---|---|
| 1777990503 | 5.56° C | 80% | 1015.3 hPa | 0 mm | - | 36 W/m² | - |
| 1777989896 | 5.56° C | 81% | 1015.3 hPa | 0 mm | - | 40 W/m² | - |
| 1777989592 | 5.56° C | 80% | 1015.4 hPa | 0 mm | - | 27 W/m² | - |
| 1777989289 | 5.56° C | 80% | 1015.4 hPa | 0 mm | - | 43 W/m² | - |
| 1777988985 | 5.56° C | 81% | 1015.3 hPa | 0 mm | - | 52 W/m² | - |
| 1777988682 | 5.56° C | 81% | 1015.3 hPa | 0 mm | - | 54 W/m² | - |
| 1777988378 | 5.56° C | 80% | 1015.6 hPa | 0 mm | - | 23 W/m² | - |
| 1777988076 | 5.56° C | 80% | 1015.3 hPa | 0 mm | - | 20 W/m² | - |
| 1777987771 | 5.56° C | 81% | 1015.3 hPa | 0 mm | - | 20 W/m² | - |
| 1777987468 | 5.56° C | 80% | 1015.3 hPa | 0 mm | - | 23 W/m² | - |
| 1777987166 | 5.56° C | 81% | 1015.1 hPa | 0 mm | - | 21 W/m² | - |
| 1777986863 | 5.56° C | 80% | 1015 hPa | 0 mm | - | 18 W/m² | - |
| 1777986561 | 5.56° C | 80% | 1015.1 hPa | 0 mm | - | 19 W/m² | - |
| 1777986258 | 5.56° C | 81% | 1015.1 hPa | 0 mm | - | 21 W/m² | - |
| 1777985955 | 5.56° C | 80% | 1014.8 hPa | 0 mm | - | 22 W/m² | - |
| 1777985653 | 5.56° C | 80% | 1015 hPa | 0 mm | - | 21 W/m² | - |
| 1777985349 | 5.56° C | 80% | 1014.6 hPa | 0 mm | - | 26 W/m² | - |
| 1777985046 | 5.56° C | 79% | 1014.6 hPa | 0 mm | - | 20 W/m² | - |
| 1777984742 | 5.56° C | 78% | 1014.6 hPa | 0 mm | - | 14 W/m² | - |
| 1777984439 | 6.11° C | 78% | 1014.6 hPa | 0 mm | - | 11 W/m² | - |
| 1777984135 | 6.11° C | 77% | 1014.4 hPa | 0 mm | - | 9 W/m² | - |
| 1777983832 | 6.11° C | 77% | 1014.5 hPa | 0 mm | - | 9 W/m² | - |
| 1777983529 | 6.11° C | 76% | 1014.1 hPa | 0 mm | - | 6 W/m² | - |
| 1777983226 | 6.11° C | 76% | 1014 hPa | 0 mm | - | 6 W/m² | - |
| 1777982922 | 6.11° C | 75% | 1014 hPa | 0 mm | - | 6 W/m² | - |
* Rain latest hour (hover to see other rain measurements)
** Current wind speed in m/s (hover to see current wind gust speed)